{"data":{"norad_id":62446,"epoch":"2026-09-21T20:26:03.516576Z","epoch_age_seconds":57741,"freshness":"FRESH","line1":"1 62446U 24251Q   26264.85142959  .00010277  00000+0  31488-3 0  9992","line2":"2 62446  53.1609 141.1717 0002401  96.4781 263.6495 15.34400109 97718","mean_motion":15.34400109,"eccentricity":0.0002401,"inclination_deg":53.1609,"raan_deg":141.1717,"arg_perigee_deg":96.4781,"mean_anomaly_deg":263.6495,"bstar":0.00031488,"rev_number":9771,"period_min":93.847751414621,"perigee_km":461.06043057227,"apogee_km":464.34540190004,"semimajor_km":6840.8399162362,"source":"CELESTRAK","updated_at":"2026-09-22T09:00:49.582801Z"}}